Year,Month,Day,Hour,Minute,Value (Times are PST for barometer in hPa)
2019,02,15,00,00,990.48
2019,02,15,00,01,990.49
2019,02,15,00,02,990.49
2019,02,15,00,03,990.49
2019,02,15,00,04,990.49
2019,02,15,00,05,990.49
2019,02,15,00,06,990.49
2019,02,15,00,07,990.49
2019,02,15,00,08,990.49
2019,02,15,00,09,990.49
2019,02,15,00,10,990.49
2019,02,15,00,11,990.49
2019,02,15,00,12,990.49
2019,02,15,00,13,990.49
2019,02,15,00,14,990.49
2019,02,15,00,15,990.75
2019,02,15,00,16,990.76
2019,02,15,00,17,990.76
2019,02,15,00,18,990.76
2019,02,15,00,19,990.76
2019,02,15,00,20,990.76
2019,02,15,00,21,990.76
2019,02,15,00,22,990.76
2019,02,15,00,23,990.76
2019,02,15,00,24,990.76
2019,02,15,00,25,990.76
2019,02,15,00,26,990.76
2019,02,15,00,27,990.76
2019,02,15,00,28,990.76
2019,02,15,00,29,990.76
2019,02,15,00,30,991.02
2019,02,15,00,31,991.03
2019,02,15,00,32,991.03
2019,02,15,00,33,991.03
2019,02,15,00,34,991.03
2019,02,15,00,35,991.03
2019,02,15,00,36,991.03
2019,02,15,00,37,991.03
2019,02,15,00,38,991.03
2019,02,15,00,39,991.03
2019,02,15,00,40,991.03
2019,02,15,00,41,991.03
2019,02,15,00,42,991.03
2019,02,15,00,43,991.03
2019,02,15,00,44,991.03
2019,02,15,00,45,991.29
2019,02,15,00,46,991.30
2019,02,15,00,47,991.30
2019,02,15,00,48,991.30
2019,02,15,00,49,991.30
2019,02,15,00,50,991.30
2019,02,15,00,51,991.30
2019,02,15,00,52,991.30
2019,02,15,00,53,991.30
2019,02,15,00,54,991.30
2019,02,15,00,55,991.30
2019,02,15,00,56,991.30
2019,02,15,00,57,991.30
2019,02,15,00,58,991.30
2019,02,15,00,59,991.30
2019,02,15,01,00,991.42
2019,02,15,01,01,991.43
2019,02,15,01,02,991.43
2019,02,15,01,03,991.43
2019,02,15,01,04,991.43
2019,02,15,01,05,991.43
2019,02,15,01,06,991.43
2019,02,15,01,07,991.43
2019,02,15,01,08,991.43
2019,02,15,01,09,991.43
2019,02,15,01,10,991.43
2019,02,15,01,11,991.43
2019,02,15,01,12,991.43
2019,02,15,01,13,991.43
2019,02,15,01,14,991.43
2019,02,15,01,15,991.53
2019,02,15,01,16,991.53
2019,02,15,01,17,991.53
2019,02,15,01,18,991.53
2019,02,15,01,19,991.53
2019,02,15,01,20,991.53
2019,02,15,01,21,991.53
2019,02,15,01,22,991.53
2019,02,15,01,23,991.53
2019,02,15,01,24,991.53
2019,02,15,01,25,991.53
2019,02,15,01,26,991.53
2019,02,15,01,27,991.53
2019,02,15,01,28,991.53
2019,02,15,01,29,991.53
2019,02,15,01,30,991.80
2019,02,15,01,31,991.81
2019,02,15,01,32,991.81
2019,02,15,01,33,991.81
2019,02,15,01,34,991.81
2019,02,15,01,35,991.81
2019,02,15,01,36,991.81
2019,02,15,01,37,991.81
2019,02,15,01,38,991.81
2019,02,15,01,39,991.81
2019,02,15,01,40,991.81
2019,02,15,01,41,991.81
2019,02,15,01,42,991.81
2019,02,15,01,43,991.81
2019,02,15,01,44,991.81
2019,02,15,01,45,991.94
2019,02,15,01,46,991.94
2019,02,15,01,47,991.94
2019,02,15,01,48,991.94
2019,02,15,01,49,991.94
2019,02,15,01,50,991.94
2019,02,15,01,51,991.94
2019,02,15,01,52,991.94
2019,02,15,01,53,991.94
2019,02,15,01,54,991.94
2019,02,15,01,55,991.94
2019,02,15,01,56,991.94
2019,02,15,01,57,991.94
2019,02,15,01,58,991.94
2019,02,15,01,59,991.94
2019,02,15,02,00,991.94
2019,02,15,02,01,991.94
2019,02,15,02,02,991.94
2019,02,15,02,03,991.94
2019,02,15,02,04,991.94
2019,02,15,02,05,991.94
2019,02,15,02,06,991.94
2019,02,15,02,07,991.94
2019,02,15,02,08,991.94
2019,02,15,02,09,991.94
2019,02,15,02,10,991.94
2019,02,15,02,11,991.94
2019,02,15,02,12,991.94
2019,02,15,02,13,991.94
2019,02,15,02,14,991.94
2019,02,15,02,15,992.03
2019,02,15,02,16,992.04
2019,02,15,02,17,992.04
2019,02,15,02,18,992.04
2019,02,15,02,19,992.04
2019,02,15,02,20,992.04
2019,02,15,02,21,992.04
2019,02,15,02,22,992.04
2019,02,15,02,23,992.04
2019,02,15,02,24,992.04
2019,02,15,02,25,992.04
2019,02,15,02,26,992.04
2019,02,15,02,27,992.04
2019,02,15,02,28,992.04
2019,02,15,02,29,992.04
2019,02,15,02,30,992.08
2019,02,15,02,31,992.08
2019,02,15,02,32,992.08
2019,02,15,02,33,992.08
2019,02,15,02,34,992.08
2019,02,15,02,35,992.08
2019,02,15,02,36,992.08
2019,02,15,02,37,992.08
2019,02,15,02,38,992.08
2019,02,15,02,39,992.08
2019,02,15,02,40,992.08
2019,02,15,02,41,992.08
2019,02,15,02,42,992.08
2019,02,15,02,43,992.08
2019,02,15,02,44,992.08
2019,02,15,02,45,992.40
2019,02,15,02,46,992.42
2019,02,15,02,47,992.42
2019,02,15,02,48,992.42
2019,02,15,02,49,992.42
2019,02,15,02,50,992.42
2019,02,15,02,51,992.42
2019,02,15,02,52,992.42
2019,02,15,02,53,992.42
2019,02,15,02,54,992.42
2019,02,15,02,55,992.42
2019,02,15,02,56,992.42
2019,02,15,02,57,992.42
2019,02,15,02,58,992.42
2019,02,15,02,59,992.42
2019,02,15,03,00,992.64
2019,02,15,03,01,992.65
2019,02,15,03,02,992.65
2019,02,15,03,03,992.65
2019,02,15,03,04,992.65
2019,02,15,03,05,992.65
2019,02,15,03,06,992.65
2019,02,15,03,07,992.65
2019,02,15,03,08,992.65
2019,02,15,03,09,992.65
2019,02,15,03,10,992.65
2019,02,15,03,11,992.65
2019,02,15,03,12,992.65
2019,02,15,03,13,992.65
2019,02,15,03,14,992.65
2019,02,15,03,15,992.91
2019,02,15,03,16,992.92
2019,02,15,03,17,992.92
2019,02,15,03,18,992.92
2019,02,15,03,19,992.92
2019,02,15,03,20,992.92
2019,02,15,03,21,992.92
2019,02,15,03,22,992.92
2019,02,15,03,23,992.92
2019,02,15,03,24,992.92
2019,02,15,03,25,992.92
2019,02,15,03,26,992.92
2019,02,15,03,27,992.92
2019,02,15,03,28,992.92
2019,02,15,03,29,992.92
2019,02,15,03,30,992.89
2019,02,15,03,31,992.89
2019,02,15,03,32,992.89
2019,02,15,03,33,992.89
2019,02,15,03,34,992.89
2019,02,15,03,35,992.89
2019,02,15,03,36,992.89
2019,02,15,03,37,992.89
2019,02,15,03,38,992.89
2019,02,15,03,39,992.89
2019,02,15,03,40,992.89
2019,02,15,03,41,992.89
2019,02,15,03,42,992.89
2019,02,15,03,43,992.89
2019,02,15,03,44,992.89
2019,02,15,03,45,992.98
2019,02,15,03,46,992.99
2019,02,15,03,47,992.99
2019,02,15,03,48,992.99
2019,02,15,03,49,992.99
2019,02,15,03,50,992.99
2019,02,15,03,51,992.99
2019,02,15,03,52,992.99
2019,02,15,03,53,992.99
2019,02,15,03,54,992.99
2019,02,15,03,55,992.99
2019,02,15,03,56,992.99
2019,02,15,03,57,992.99
2019,02,15,03,58,992.99
2019,02,15,03,59,992.99
2019,02,15,04,00,992.96
2019,02,15,04,01,992.96
2019,02,15,04,02,992.96
2019,02,15,04,03,992.96
2019,02,15,04,04,992.96
2019,02,15,04,05,992.96
2019,02,15,04,06,992.96
2019,02,15,04,07,992.96
2019,02,15,04,08,992.96
2019,02,15,04,09,992.96
2019,02,15,04,10,992.96
2019,02,15,04,11,992.96
2019,02,15,04,12,992.96
2019,02,15,04,13,992.96
2019,02,15,04,14,992.96
2019,02,15,04,15,993.08
2019,02,15,04,16,993.09
2019,02,15,04,17,993.09
2019,02,15,04,18,993.09
2019,02,15,04,19,993.09
2019,02,15,04,20,993.09
2019,02,15,04,21,993.09
2019,02,15,04,22,993.09
2019,02,15,04,23,993.09
2019,02,15,04,24,993.09
2019,02,15,04,25,993.09
2019,02,15,04,26,993.09
2019,02,15,04,27,993.09
2019,02,15,04,28,993.09
2019,02,15,04,29,993.09
2019,02,15,04,30,993.03
2019,02,15,04,31,993.03
2019,02,15,04,32,993.03
2019,02,15,04,33,993.03
2019,02,15,04,34,993.03
2019,02,15,04,35,993.03
2019,02,15,04,36,993.03
2019,02,15,04,37,993.03
2019,02,15,04,38,993.03
2019,02,15,04,39,993.03
2019,02,15,04,40,993.03
2019,02,15,04,41,993.03
2019,02,15,04,42,993.03
2019,02,15,04,43,993.03
2019,02,15,04,44,993.03
2019,02,15,04,45,993.41
2019,02,15,04,46,993.43
2019,02,15,04,47,993.43
2019,02,15,04,48,993.43
2019,02,15,04,49,993.43
2019,02,15,04,50,993.43
2019,02,15,04,51,993.43
2019,02,15,04,52,993.43
2019,02,15,04,53,993.43
2019,02,15,04,54,993.43
2019,02,15,04,55,993.43
2019,02,15,04,56,993.43
2019,02,15,04,57,993.43
2019,02,15,04,58,993.43
2019,02,15,04,59,993.43
2019,02,15,05,00,993.47
2019,02,15,05,01,993.47
2019,02,15,05,02,993.47
2019,02,15,05,03,993.47
2019,02,15,05,04,993.47
2019,02,15,05,05,993.47
2019,02,15,05,06,993.47
2019,02,15,05,07,993.47
2019,02,15,05,08,993.47
2019,02,15,05,09,993.47
2019,02,15,05,10,993.47
2019,02,15,05,11,993.47
2019,02,15,05,12,993.47
2019,02,15,05,13,993.47
2019,02,15,05,14,993.47
2019,02,15,05,15,993.57
2019,02,15,05,16,993.57
2019,02,15,05,17,993.57
2019,02,15,05,18,993.57
2019,02,15,05,19,993.57
2019,02,15,05,20,993.57
2019,02,15,05,21,993.57
2019,02,15,05,22,993.57
2019,02,15,05,23,993.57
2019,02,15,05,24,993.57
2019,02,15,05,25,993.57
2019,02,15,05,26,993.57
2019,02,15,05,27,993.57
2019,02,15,05,28,993.57
2019,02,15,05,29,993.57
2019,02,15,05,30,993.92
2019,02,15,05,31,993.94
2019,02,15,05,32,993.94
2019,02,15,05,33,993.94
2019,02,15,05,34,993.94
2019,02,15,05,35,993.94
2019,02,15,05,36,993.94
2019,02,15,05,37,993.94
2019,02,15,05,38,993.94
2019,02,15,05,39,993.94
2019,02,15,05,40,993.94
2019,02,15,05,41,993.94
2019,02,15,05,42,993.94
2019,02,15,05,43,993.94
2019,02,15,05,44,993.94
2019,02,15,05,45,994.01
2019,02,15,05,46,994.01
2019,02,15,05,47,994.01
2019,02,15,05,48,994.01
2019,02,15,05,49,994.01
2019,02,15,05,50,994.01
2019,02,15,05,51,994.01
2019,02,15,05,52,994.01
2019,02,15,05,53,994.01
2019,02,15,05,54,994.01
2019,02,15,05,55,994.01
2019,02,15,05,56,994.01
2019,02,15,05,57,994.01
2019,02,15,05,58,994.01
2019,02,15,05,59,994.01
2019,02,15,06,00,994.04
2019,02,15,06,01,994.04
2019,02,15,06,02,994.04
2019,02,15,06,03,994.04
2019,02,15,06,04,994.04
2019,02,15,06,05,994.04
2019,02,15,06,06,994.04
2019,02,15,06,07,994.04
2019,02,15,06,08,994.04
2019,02,15,06,09,994.04
2019,02,15,06,10,994.04
2019,02,15,06,11,994.04
2019,02,15,06,12,994.04
2019,02,15,06,13,994.04
2019,02,15,06,14,994.04
2019,02,15,06,15,994.17
2019,02,15,06,16,994.18
2019,02,15,06,17,994.18
2019,02,15,06,18,994.18
2019,02,15,06,19,994.18
2019,02,15,06,20,994.18
2019,02,15,06,21,994.18
2019,02,15,06,22,994.18
2019,02,15,06,23,994.18
2019,02,15,06,24,994.18
2019,02,15,06,25,994.18
2019,02,15,06,26,994.18
2019,02,15,06,27,994.18
2019,02,15,06,28,994.18
2019,02,15,06,29,994.18
2019,02,15,06,30,994.41
2019,02,15,06,31,994.41
2019,02,15,06,32,994.41
2019,02,15,06,33,994.41
2019,02,15,06,34,994.41
2019,02,15,06,35,994.41
2019,02,15,06,36,994.41
2019,02,15,06,37,994.41
2019,02,15,06,38,994.41
2019,02,15,06,39,994.41
2019,02,15,06,40,994.41
2019,02,15,06,41,994.41
2019,02,15,06,42,994.41
2019,02,15,06,43,994.41
2019,02,15,06,44,994.41
2019,02,15,06,45,994.52
2019,02,15,06,46,994.52
2019,02,15,06,47,994.52
2019,02,15,06,48,994.52
2019,02,15,06,49,994.52
2019,02,15,06,50,994.52
2019,02,15,06,51,994.52
2019,02,15,06,52,994.52
2019,02,15,06,53,994.52
2019,02,15,06,54,994.52
2019,02,15,06,55,994.52
2019,02,15,06,56,994.52
2019,02,15,06,57,994.52
2019,02,15,06,58,994.52
2019,02,15,06,59,994.52
2019,02,15,07,00,994.75
2019,02,15,07,01,994.75
2019,02,15,07,02,994.75
2019,02,15,07,03,994.75
2019,02,15,07,04,994.75
2019,02,15,07,05,994.75
2019,02,15,07,06,994.75
2019,02,15,07,07,994.75
2019,02,15,07,08,994.75
2019,02,15,07,09,994.75
2019,02,15,07,10,994.75
2019,02,15,07,11,994.75
2019,02,15,07,12,994.75
2019,02,15,07,13,994.75
2019,02,15,07,14,994.75
2019,02,15,07,15,995.04
2019,02,15,07,16,995.06
2019,02,15,07,17,995.06
2019,02,15,07,18,995.06
2019,02,15,07,19,995.06
2019,02,15,07,20,995.06
2019,02,15,07,21,995.06
2019,02,15,07,22,995.06
2019,02,15,07,23,995.06
2019,02,15,07,24,995.06
2019,02,15,07,25,995.06
2019,02,15,07,26,995.06
2019,02,15,07,27,995.06
2019,02,15,07,28,995.06
2019,02,15,07,29,995.06
2019,02,15,07,30,995.29
2019,02,15,07,31,995.29
2019,02,15,07,32,995.29
2019,02,15,07,33,995.29
2019,02,15,07,34,995.29
2019,02,15,07,35,995.29
2019,02,15,07,36,995.29
2019,02,15,07,37,995.29
2019,02,15,07,38,995.29
2019,02,15,07,39,995.29
2019,02,15,07,40,995.29
2019,02,15,07,41,995.29
2019,02,15,07,42,995.29
2019,02,15,07,43,995.29
2019,02,15,07,44,995.29
2019,02,15,07,45,995.50
2019,02,15,07,46,995.50
2019,02,15,07,47,995.50
2019,02,15,07,48,995.50
2019,02,15,07,49,995.50
2019,02,15,07,50,995.50
2019,02,15,07,51,995.50
2019,02,15,07,52,995.50
2019,02,15,07,53,995.50
2019,02,15,07,54,995.50
2019,02,15,07,55,995.50
2019,02,15,07,56,995.50
2019,02,15,07,57,995.50
2019,02,15,07,58,995.50
2019,02,15,07,59,995.50
2019,02,15,08,00,995.60
2019,02,15,08,01,995.60
2019,02,15,08,02,995.60
2019,02,15,08,03,995.60
2019,02,15,08,04,995.60
2019,02,15,08,05,995.60
2019,02,15,08,06,995.60
2019,02,15,08,07,995.60
2019,02,15,08,08,995.60
2019,02,15,08,09,995.60
2019,02,15,08,10,995.60
2019,02,15,08,11,995.60
2019,02,15,08,12,995.60
2019,02,15,08,13,995.60
2019,02,15,08,14,995.60
2019,02,15,08,15,996.04
2019,02,15,08,16,996.04
2019,02,15,08,17,996.04
2019,02,15,08,18,996.04
2019,02,15,08,19,996.04
2019,02,15,08,20,996.04
2019,02,15,08,21,996.04
2019,02,15,08,22,996.04
2019,02,15,08,23,996.04
2019,02,15,08,24,996.04
2019,02,15,08,25,996.04
2019,02,15,08,26,996.04
2019,02,15,08,27,996.04
2019,02,15,08,28,996.04
2019,02,15,08,29,996.04
2019,02,15,08,30,996.46
2019,02,15,08,31,996.48
2019,02,15,08,32,996.48
2019,02,15,08,33,996.48
2019,02,15,08,34,996.48
2019,02,15,08,35,996.48
2019,02,15,08,36,996.48
2019,02,15,08,37,996.48
2019,02,15,08,38,996.48
2019,02,15,08,39,996.48
2019,02,15,08,40,996.48
2019,02,15,08,41,996.48
2019,02,15,08,42,996.48
2019,02,15,08,43,996.48
2019,02,15,08,44,996.48
2019,02,15,08,45,996.71
2019,02,15,08,46,996.72
2019,02,15,08,47,996.72
2019,02,15,08,48,996.72
2019,02,15,08,49,996.72
2019,02,15,08,50,996.72
2019,02,15,08,51,996.72
2019,02,15,08,52,996.72
2019,02,15,08,53,996.72
2019,02,15,08,54,996.72
2019,02,15,08,55,996.72
2019,02,15,08,56,996.72
2019,02,15,08,57,996.72
2019,02,15,08,58,996.72
2019,02,15,08,59,996.72
2019,02,15,09,00,996.82
2019,02,15,09,01,996.82
2019,02,15,09,02,996.82
2019,02,15,09,03,996.82
2019,02,15,09,04,996.82
2019,02,15,09,05,996.82
2019,02,15,09,06,996.82
2019,02,15,09,07,996.82
2019,02,15,09,08,996.82
2019,02,15,09,09,996.82
2019,02,15,09,10,996.82
2019,02,15,09,11,996.82
2019,02,15,09,12,996.82
2019,02,15,09,13,996.82
2019,02,15,09,14,996.82
2019,02,15,09,15,997.16
2019,02,15,09,16,997.16
2019,02,15,09,17,997.16
2019,02,15,09,18,997.16
2019,02,15,09,19,997.16
2019,02,15,09,20,997.16
2019,02,15,09,21,997.16
2019,02,15,09,22,997.16
2019,02,15,09,23,997.16
2019,02,15,09,24,997.16
2019,02,15,09,25,997.16
2019,02,15,09,26,997.16
2019,02,15,09,27,997.16
2019,02,15,09,28,997.16
2019,02,15,09,29,997.16
2019,02,15,09,30,997.33
2019,02,15,09,31,997.33
2019,02,15,09,32,997.33
2019,02,15,09,33,997.33
2019,02,15,09,34,997.33
2019,02,15,09,35,997.33
2019,02,15,09,36,997.33
2019,02,15,09,37,997.33
2019,02,15,09,38,997.33
2019,02,15,09,39,997.33
2019,02,15,09,40,997.33
2019,02,15,09,41,997.33
2019,02,15,09,42,997.33
2019,02,15,09,43,997.33
2019,02,15,09,44,997.33
2019,02,15,09,45,997.64
2019,02,15,09,46,997.66
2019,02,15,09,47,997.66
2019,02,15,09,48,997.66
2019,02,15,09,49,997.66
2019,02,15,09,50,997.66
2019,02,15,09,51,997.66
2019,02,15,09,52,997.66
2019,02,15,09,53,997.66
2019,02,15,09,54,997.66
2019,02,15,09,55,997.66
2019,02,15,09,56,997.66
2019,02,15,09,57,997.66
2019,02,15,09,58,997.66
2019,02,15,09,59,997.66
2019,02,15,10,00,998.02
2019,02,15,10,01,998.04
2019,02,15,10,02,998.04
2019,02,15,10,03,998.04
2019,02,15,10,04,998.04
2019,02,15,10,05,998.04
2019,02,15,10,06,998.04
2019,02,15,10,07,998.04
2019,02,15,10,08,998.04
2019,02,15,10,09,998.04
2019,02,15,10,10,998.04
2019,02,15,10,11,998.04
2019,02,15,10,12,998.04
2019,02,15,10,13,998.04
2019,02,15,10,14,998.04
2019,02,15,10,15,998.21
2019,02,15,10,16,998.21
2019,02,15,10,17,998.21
2019,02,15,10,18,998.21
2019,02,15,10,19,998.21
2019,02,15,10,20,998.21
2019,02,15,10,21,998.21
2019,02,15,10,22,998.21
2019,02,15,10,23,998.21
2019,02,15,10,24,998.21
2019,02,15,10,25,998.21
2019,02,15,10,26,998.21
2019,02,15,10,27,998.21
2019,02,15,10,28,998.21
2019,02,15,10,29,998.21
2019,02,15,10,30,998.44
2019,02,15,10,31,998.44
2019,02,15,10,32,998.44
2019,02,15,10,33,998.44
2019,02,15,10,34,998.44
2019,02,15,10,35,998.44
2019,02,15,10,36,998.44
2019,02,15,10,37,998.44
2019,02,15,10,38,998.44
2019,02,15,10,39,998.44
2019,02,15,10,40,998.44
2019,02,15,10,41,998.44
2019,02,15,10,42,998.44
2019,02,15,10,43,998.44
2019,02,15,10,44,998.44
2019,02,15,10,45,998.70
2019,02,15,10,46,998.71
2019,02,15,10,47,998.71
2019,02,15,10,48,998.71
2019,02,15,10,49,998.71
2019,02,15,10,50,998.71
2019,02,15,10,51,998.71
2019,02,15,10,52,998.71
2019,02,15,10,53,998.71
2019,02,15,10,54,998.71
2019,02,15,10,55,998.71
2019,02,15,10,56,998.71
2019,02,15,10,57,998.71
2019,02,15,10,58,998.71
2019,02,15,10,59,998.71
2019,02,15,11,00,998.85
2019,02,15,11,01,998.85
2019,02,15,11,02,998.85
2019,02,15,11,03,998.85
2019,02,15,11,04,998.85
2019,02,15,11,05,998.85
2019,02,15,11,06,998.85
2019,02,15,11,07,998.85
2019,02,15,11,08,998.85
2019,02,15,11,09,998.85
2019,02,15,11,10,998.85
2019,02,15,11,11,998.85
2019,02,15,11,12,998.85
2019,02,15,11,13,998.85
2019,02,15,11,14,998.85
2019,02,15,11,15,999.22
2019,02,15,11,16,999.22
2019,02,15,11,17,999.22
2019,02,15,11,18,999.22
2019,02,15,11,19,999.22
2019,02,15,11,20,999.22
2019,02,15,11,21,999.22
2019,02,15,11,22,999.22
2019,02,15,11,23,999.22
2019,02,15,11,24,999.22
2019,02,15,11,25,999.22
2019,02,15,11,26,999.22
2019,02,15,11,27,999.22
2019,02,15,11,28,999.22
2019,02,15,11,29,999.22
2019,02,15,11,30,999.52
2019,02,15,11,31,999.53
2019,02,15,11,32,999.53
2019,02,15,11,33,999.53
2019,02,15,11,34,999.53
2019,02,15,11,35,999.53
2019,02,15,11,36,999.53
2019,02,15,11,37,999.53
2019,02,15,11,38,999.53
2019,02,15,11,39,999.53
2019,02,15,11,40,999.53
2019,02,15,11,41,999.53
2019,02,15,11,42,999.53
2019,02,15,11,43,999.53
2019,02,15,11,44,999.53
2019,02,15,11,45,999.70
2019,02,15,11,46,999.70
2019,02,15,11,47,999.70
2019,02,15,11,48,999.70
2019,02,15,11,49,999.70
2019,02,15,11,50,999.70
2019,02,15,11,51,999.70
2019,02,15,11,52,999.70
2019,02,15,11,53,999.70
2019,02,15,11,54,999.70
2019,02,15,11,55,999.70
2019,02,15,11,56,999.70
2019,02,15,11,57,999.70
2019,02,15,11,58,999.70
2019,02,15,11,59,999.70
2019,02,15,12,00,999.76
2019,02,15,12,01,999.76
2019,02,15,12,02,999.76
2019,02,15,12,03,999.76
2019,02,15,12,04,999.76
2019,02,15,12,05,999.76
2019,02,15,12,06,999.76
2019,02,15,12,07,999.76
2019,02,15,12,08,999.76
2019,02,15,12,09,999.76
2019,02,15,12,10,999.76
2019,02,15,12,11,999.76
2019,02,15,12,12,999.76
2019,02,15,12,13,999.76
2019,02,15,12,14,999.76
2019,02,15,12,15,999.76
2019,02,15,12,16,999.76
2019,02,15,12,17,999.76
2019,02,15,12,18,999.76
2019,02,15,12,19,999.76
2019,02,15,12,20,999.76
2019,02,15,12,21,999.76
2019,02,15,12,22,999.76
2019,02,15,12,23,999.76
2019,02,15,12,24,999.76
2019,02,15,12,25,999.76
2019,02,15,12,26,999.76
2019,02,15,12,27,999.76
2019,02,15,12,28,999.76
2019,02,15,12,29,999.76
2019,02,15,12,30,999.76
2019,02,15,12,31,999.76
2019,02,15,12,32,999.76
2019,02,15,12,33,999.76
2019,02,15,12,34,999.76
2019,02,15,12,35,999.76
2019,02,15,12,36,999.76
2019,02,15,12,37,999.76
2019,02,15,12,38,999.76
2019,02,15,12,39,999.76
2019,02,15,12,40,999.76
2019,02,15,12,41,999.76
2019,02,15,12,42,999.76
2019,02,15,12,43,999.76
2019,02,15,12,44,999.76
2019,02,15,12,45,999.80
2019,02,15,12,46,999.80
2019,02,15,12,47,999.80
2019,02,15,12,48,999.80
2019,02,15,12,49,999.80
2019,02,15,12,50,999.80
2019,02,15,12,51,999.80
2019,02,15,12,52,999.80
2019,02,15,12,53,999.80
2019,02,15,12,54,999.80
2019,02,15,12,55,999.80
2019,02,15,12,56,999.80
2019,02,15,12,57,999.80
2019,02,15,12,58,999.80
2019,02,15,12,59,999.80
2019,02,15,13,00,1000.18
2019,02,15,13,01,1000.20
2019,02,15,13,02,1000.20
2019,02,15,13,03,1000.20
2019,02,15,13,04,1000.20
2019,02,15,13,05,1000.20
2019,02,15,13,06,1000.20
2019,02,15,13,07,1000.20
2019,02,15,13,08,1000.20
2019,02,15,13,09,1000.20
2019,02,15,13,10,1000.20
2019,02,15,13,11,1000.20
2019,02,15,13,12,1000.20
2019,02,15,13,13,1000.20
2019,02,15,13,14,1000.20
2019,02,15,13,15,1000.27
2019,02,15,13,16,1000.27
2019,02,15,13,17,1000.27
2019,02,15,13,18,1000.27
2019,02,15,13,19,1000.27
2019,02,15,13,20,1000.27
2019,02,15,13,21,1000.27
2019,02,15,13,22,1000.27
2019,02,15,13,23,1000.27
2019,02,15,13,24,1000.27
2019,02,15,13,25,1000.27
2019,02,15,13,26,1000.27
2019,02,15,13,27,1000.27
2019,02,15,13,28,1000.27
2019,02,15,13,29,1000.27
2019,02,15,13,30,1000.31
2019,02,15,13,31,1000.31
2019,02,15,13,32,1000.31
2019,02,15,13,33,1000.31
2019,02,15,13,34,1000.31
2019,02,15,13,35,1000.31
2019,02,15,13,36,1000.31
2019,02,15,13,37,1000.31
2019,02,15,13,38,1000.31
2019,02,15,13,39,1000.31
2019,02,15,13,40,1000.31
2019,02,15,13,41,1000.31
2019,02,15,13,42,1000.31
2019,02,15,13,43,1000.31
2019,02,15,13,44,1000.31
2019,02,15,13,45,1000.53
2019,02,15,13,46,1000.54
2019,02,15,13,47,1000.54
2019,02,15,13,48,1000.54
2019,02,15,13,49,1000.54
2019,02,15,13,50,1000.54
2019,02,15,13,51,1000.54
2019,02,15,13,52,1000.54
2019,02,15,13,53,1000.54
2019,02,15,13,54,1000.54
2019,02,15,13,55,1000.54
2019,02,15,13,56,1000.54
2019,02,15,13,57,1000.54
2019,02,15,13,58,1000.54
2019,02,15,13,59,1000.54
2019,02,15,14,00,1000.64
2019,02,15,14,01,1000.64
2019,02,15,14,02,1000.64
2019,02,15,14,03,1000.64
2019,02,15,14,04,1000.64
2019,02,15,14,05,1000.64
2019,02,15,14,06,1000.64
2019,02,15,14,07,1000.64
2019,02,15,14,08,1000.64
2019,02,15,14,09,1000.64
2019,02,15,14,10,1000.64
2019,02,15,14,11,1000.64
2019,02,15,14,12,1000.64
2019,02,15,14,13,1000.64
2019,02,15,14,14,1000.64
2019,02,15,14,15,1000.77
2019,02,15,14,16,1000.78
2019,02,15,14,17,1000.78
2019,02,15,14,18,1000.78
2019,02,15,14,19,1000.78
2019,02,15,14,20,1000.78
2019,02,15,14,21,1000.78
2019,02,15,14,22,1000.78
2019,02,15,14,23,1000.78
2019,02,15,14,24,1000.78
2019,02,15,14,25,1000.78
2019,02,15,14,26,1000.78
2019,02,15,14,27,1000.78
2019,02,15,14,28,1000.78
2019,02,15,14,29,1000.78
2019,02,15,14,30,1000.81
2019,02,15,14,31,1000.81
2019,02,15,14,32,1000.81
2019,02,15,14,33,1000.81
2019,02,15,14,34,1000.81
2019,02,15,14,35,1000.81
2019,02,15,14,36,1000.81
2019,02,15,14,37,1000.81
2019,02,15,14,38,1000.81
2019,02,15,14,39,1000.81
2019,02,15,14,40,1000.81
2019,02,15,14,41,1000.81
2019,02,15,14,42,1000.81
2019,02,15,14,43,1000.81
2019,02,15,14,44,1000.81
2019,02,15,14,45,1000.88
2019,02,15,14,46,1000.88
2019,02,15,14,47,1000.88
2019,02,15,14,48,1000.88
2019,02,15,14,49,1000.88
2019,02,15,14,50,1000.88
2019,02,15,14,51,1000.88
2019,02,15,14,52,1000.88
2019,02,15,14,53,1000.88
2019,02,15,14,54,1000.88
2019,02,15,14,55,1000.88
2019,02,15,14,56,1000.88
2019,02,15,14,57,1000.88
2019,02,15,14,58,1000.88
2019,02,15,14,59,1000.88
2019,02,15,15,00,1001.01
2019,02,15,15,01,1001.02
2019,02,15,15,02,1001.02
2019,02,15,15,03,1001.02
2019,02,15,15,04,1001.02
2019,02,15,15,05,1001.02
2019,02,15,15,06,1001.02
2019,02,15,15,07,1001.02
2019,02,15,15,08,1001.02
2019,02,15,15,09,1001.02
2019,02,15,15,10,1001.02
2019,02,15,15,11,1001.02
2019,02,15,15,12,1001.02
2019,02,15,15,13,1001.02
2019,02,15,15,14,1001.02
2019,02,15,15,15,1001.19
2019,02,15,15,16,1001.19
2019,02,15,15,17,1001.19
2019,02,15,15,18,1001.19
2019,02,15,15,19,1001.19
2019,02,15,15,20,1001.19
2019,02,15,15,21,1001.19
2019,02,15,15,22,1001.19
2019,02,15,15,23,1001.19
2019,02,15,15,24,1001.19
2019,02,15,15,25,1001.19
2019,02,15,15,26,1001.19
2019,02,15,15,27,1001.19
2019,02,15,15,28,1001.19
2019,02,15,15,29,1001.19
2019,02,15,15,30,1001.31
2019,02,15,15,31,1001.32
2019,02,15,15,32,1001.32
2019,02,15,15,33,1001.32
2019,02,15,15,34,1001.32
2019,02,15,15,35,1001.32
2019,02,15,15,36,1001.32
2019,02,15,15,37,1001.32
2019,02,15,15,38,1001.32
2019,02,15,15,39,1001.32
2019,02,15,15,40,1001.32
2019,02,15,15,41,1001.32
2019,02,15,15,42,1001.32
2019,02,15,15,43,1001.32
2019,02,15,15,44,1001.32
2019,02,15,15,45,1001.59
2019,02,15,15,46,1001.59
2019,02,15,15,47,1001.59
2019,02,15,15,48,1001.59
2019,02,15,15,49,1001.59
2019,02,15,15,50,1001.59
2019,02,15,15,51,1001.59
2019,02,15,15,52,1001.59
2019,02,15,15,53,1001.59
2019,02,15,15,54,1001.59
2019,02,15,15,55,1001.59
2019,02,15,15,56,1001.59
2019,02,15,15,57,1001.59
2019,02,15,15,58,1001.59
2019,02,15,15,59,1001.59
2019,02,15,16,00,1001.66
2019,02,15,16,01,1001.66
2019,02,15,16,02,1001.66
2019,02,15,16,03,1001.66
2019,02,15,16,04,1001.66
2019,02,15,16,05,1001.66
2019,02,15,16,06,1001.66
2019,02,15,16,07,1001.66
2019,02,15,16,08,1001.66
2019,02,15,16,09,1001.66
2019,02,15,16,10,1001.66
2019,02,15,16,11,1001.66
2019,02,15,16,12,1001.66
2019,02,15,16,13,1001.66
2019,02,15,16,14,1001.66
2019,02,15,16,15,1001.57
2019,02,15,16,16,1001.56
2019,02,15,16,17,1001.56
2019,02,15,16,18,1001.56
2019,02,15,16,19,1001.56
2019,02,15,16,20,1001.56
2019,02,15,16,21,1001.56
2019,02,15,16,22,1001.56
2019,02,15,16,23,1001.56
2019,02,15,16,24,1001.56
2019,02,15,16,25,1001.56
2019,02,15,16,26,1001.56
2019,02,15,16,27,1001.56